TimePST,TemperatureF,Dew PointF,Humidity,Sea Level PressureIn,VisibilityMPH,Wind Direction,Wind SpeedMPH,Gust SpeedMPH,PrecipitationIn,Events,Conditions,WindDirDegrees,DateUTC
12:53 AM,35.1,28.9,78,30.31,10.0,ESE,8.1,-,N/A,,Clear,120,2013-03-04 08:53:00
1:53 AM,34.0,28.9,82,30.30,10.0,ESE,5.8,-,N/A,,Clear,120,2013-03-04 09:53:00
2:53 AM,34.0,28.0,79,30.30,10.0,Calm,Calm,-,N/A,,Clear,0,2013-03-04 10:53:00
3:53 AM,34.0,27.0,75,30.27,10.0,East,4.6,-,N/A,,Clear,80,2013-03-04 11:53:00
4:53 AM,33.1,28.0,82,30.28,10.0,Calm,Calm,-,N/A,,Clear,0,2013-03-04 12:53:00
5:53 AM,33.1,27.0,78,30.27,10.0,ESE,4.6,-,N/A,,Clear,120,2013-03-04 13:53:00
6:53 AM,33.1,27.0,78,30.25,10.0,Calm,Calm,-,N/A,,Clear,0,2013-03-04 14:53:00
7:53 AM,34.0,28.9,82,30.25,10.0,Calm,Calm,-,N/A,,Clear,0,2013-03-04 15:53:00
8:53 AM,36.0,30.0,79,30.25,10.0,Calm,Calm,-,N/A,,Clear,0,2013-03-04 16:53:00
9:53 AM,37.9,30.9,76,30.24,10.0,NNE,3.5,-,N/A,,Clear,20,2013-03-04 17:53:00
10:53 AM,41.0,28.9,62,30.22,10.0,NNE,5.8,-,N/A,,Clear,20,2013-03-04 18:53:00
11:53 AM,44.1,30.0,58,30.19,10.0,NNE,5.8,-,N/A,,Clear,30,2013-03-04 19:53:00
12:53 PM,46.0,28.9,51,30.16,10.0,NNE,5.8,-,N/A,,Clear,20,2013-03-04 20:53:00
1:53 PM,46.9,30.9,54,30.12,10.0,North,5.8,-,N/A,,Clear,360,2013-03-04 21:53:00
2:53 PM,48.9,30.9,50,30.09,10.0,North,5.8,-,N/A,,Clear,350,2013-03-04 22:53:00
3:53 PM,48.0,33.1,56,30.06,10.0,North,6.9,-,N/A,,Clear,350,2013-03-04 23:53:00
4:53 PM,46.9,34.0,61,30.04,10.0,North,6.9,-,N/A,,Clear,360,2013-03-05 00:53:00
5:53 PM,45.0,34.0,65,30.03,10.0,NNE,5.8,-,N/A,,Clear,20,2013-03-05 01:53:00
6:53 PM,46.0,28.0,50,30.01,10.0,Variable,6.9,-,N/A,,Clear,0,2013-03-05 02:53:00
7:53 PM,45.0,25.0,46,29.99,10.0,East,6.9,-,N/A,,Clear,100,2013-03-05 03:53:00
8:53 PM,45.0,24.1,44,29.98,10.0,ESE,9.2,-,N/A,,Clear,110,2013-03-05 04:53:00
9:53 PM,44.1,23.0,43,29.98,10.0,ESE,8.1,-,N/A,,Clear,110,2013-03-05 05:53:00
11:53 PM,43.0,23.0,45,29.94,10.0,ESE,8.1,-,N/A,,Clear,110,2013-03-05 07:53:00